TimeEDT,TemperatureF,Dew PointF,Humidity,Sea Level PressureIn,VisibilityMPH,Wind Direction,Wind SpeedMPH,Gust SpeedMPH,PrecipitationIn,Events,Conditions,WindDirDegrees,DateUTC
12:53 AM,35.1,26.1,70,30.06,10.0,West,4.6,-,N/A,,Mostly Cloudy,280,2013-05-13 04:53:00
1:53 AM,36.0,26.1,67,30.05,10.0,West,6.9,-,N/A,,Overcast,270,2013-05-13 05:53:00
2:53 AM,34.0,26.1,73,30.04,10.0,West,4.6,-,N/A,,Clear,260,2013-05-13 06:53:00
3:53 AM,33.1,24.1,70,30.05,10.0,West,6.9,-,N/A,,Clear,270,2013-05-13 07:53:00
4:53 AM,33.1,23.0,66,30.05,10.0,West,5.8,-,N/A,,Scattered Clouds,270,2013-05-13 08:53:00
5:53 AM,32.0,24.1,73,30.06,10.0,WNW,4.6,-,N/A,,Mostly Cloudy,290,2013-05-13 09:53:00
6:53 AM,32.0,24.1,73,30.06,10.0,Calm,Calm,-,N/A,,Scattered Clouds,0,2013-05-13 10:53:00
7:53 AM,36.0,25.0,64,30.08,10.0,West,5.8,-,N/A,,Mostly Cloudy,270,2013-05-13 11:53:00
8:45 AM,37.4,24.8,60,30.08,10.0,West,9.2,-,N/A,,Mostly Cloudy,270,2013-05-13 12:45:00
8:53 AM,36.0,25.0,64,30.11,10.0,West,13.8,18.4,N/A,,Mostly Cloudy,280,2013-05-13 12:53:00
9:18 AM,39.2,26.6,61,30.09,10.0,West,10.4,-,N/A,,Mostly Cloudy,270,2013-05-13 13:18:00
9:53 AM,37.9,23.0,55,30.13,10.0,West,11.5,19.6,N/A,,Mostly Cloudy,270,2013-05-13 13:53:00
10:53 AM,41.0,23.0,49,30.15,10.0,WNW,11.5,19.6,N/A,,Overcast,290,2013-05-13 14:53:00
11:53 AM,41.0,23.0,49,30.15,10.0,NW,9.2,18.4,N/A,,Mostly Cloudy,310,2013-05-13 15:53:00
12:53 PM,44.1,25.0,47,30.16,10.0,WNW,11.5,18.4,N/A,,Overcast,290,2013-05-13 16:53:00
1:53 PM,44.1,26.1,49,30.17,10.0,NW,10.4,17.3,N/A,,Overcast,310,2013-05-13 17:53:00
2:53 PM,44.1,24.1,45,30.17,10.0,Variable,6.9,17.3,N/A,,Overcast,0,2013-05-13 18:53:00
4:53 PM,44.1,23.0,43,30.17,10.0,NNW,6.9,-,N/A,,Overcast,330,2013-05-13 20:53:00
5:53 PM,45.0,24.1,44,30.16,10.0,WNW,9.2,-,N/A,,Mostly Cloudy,300,2013-05-13 21:53:00
6:53 PM,44.1,23.0,43,30.16,10.0,NNW,9.2,-,N/A,,Partly Cloudy,330,2013-05-13 22:53:00
8:53 PM,39.0,25.0,57,30.18,10.0,Calm,Calm,-,N/A,,Clear,0,2013-05-14 00:53:00
9:53 PM,37.9,26.1,62,30.19,10.0,Calm,Calm,-,N/A,,Clear,0,2013-05-14 01:53:00
10:53 PM,37.0,26.1,65,30.19,10.0,Calm,Calm,-,N/A,,Clear,0,2013-05-14 02:53:00
11:53 PM,34.0,26.1,73,30.18,10.0,South,3.5,-,N/A,,Clear,180,2013-05-14 03:53:00